Time,TemperatureF,DewpointF,PressureIn,WindDirection,WindDirectionDegrees,WindSpeedMPH,WindSpeedGustMPH,Humidity,HourlyPrecipIn,Conditions,Clouds,dailyrainin,SoftwareType,DateUTC
2013-08-31 00:01:00,59.0,45.0,27.14,South,180,0.0,3.0,59,0.00,,,0.00,Rainwise IP-100,2013-08-31 06:01:00,
2013-08-31 00:06:00,59.0,45.0,27.14,SSW,202,0.0,2.0,60,0.00,,,0.00,Rainwise IP-100,2013-08-31 06:06:00,
2013-08-31 00:11:00,59.0,46.0,27.15,SE,135,0.0,2.0,61,0.00,,,0.00,Rainwise IP-100,2013-08-31 06:11:00,
2013-08-31 00:16:00,59.0,47.0,27.15,South,180,2.0,2.0,63,0.00,,,0.00,Rainwise IP-100,2013-08-31 06:16:00,
2013-08-31 00:21:00,58.0,46.0,27.15,South,180,0.0,3.0,63,0.00,,,0.00,Rainwise IP-100,2013-08-31 06:21:00,
2013-08-31 00:26:00,58.0,46.0,27.15,South,180,0.0,0.0,64,0.00,,,0.00,Rainwise IP-100,2013-08-31 06:26:00,
2013-08-31 00:31:00,58.0,46.0,27.15,South,180,0.0,0.0,64,0.00,,,0.00,Rainwise IP-100,2013-08-31 06:31:00,
2013-08-31 00:36:00,58.0,46.0,27.15,South,180,3.0,3.0,64,0.00,,,0.00,Rainwise IP-100,2013-08-31 06:36:00,
2013-08-31 00:41:00,58.0,46.0,27.15,SSW,202,2.0,3.0,64,0.00,,,0.00,Rainwise IP-100,2013-08-31 06:41:00,
2013-08-31 00:46:00,58.0,46.0,27.15,SSE,157,2.0,4.0,63,0.00,,,0.00,Rainwise IP-100,2013-08-31 06:46:00,
2013-08-31 00:51:00,58.0,45.0,27.15,ESE,112,1.0,4.0,62,0.00,,,0.00,Rainwise IP-100,2013-08-31 06:51:00,
2013-08-31 00:56:00,59.0,46.0,27.15,SE,135,0.0,4.0,61,0.00,,,0.00,Rainwise IP-100,2013-08-31 06:56:00,
2013-08-31 01:01:00,58.0,45.0,27.15,ESE,112,1.0,4.0,62,0.00,,,0.00,Rainwise IP-100,2013-08-31 07:01:00,
2013-08-31 01:06:00,58.0,45.0,27.15,ESE,112,0.0,1.0,62,0.00,,,0.00,Rainwise IP-100,2013-08-31 07:06:00,
2013-08-31 01:11:00,58.0,46.0,27.16,SE,135,0.0,4.0,63,0.00,,,0.00,Rainwise IP-100,2013-08-31 07:11:00,
2013-08-31 01:16:00,58.0,46.0,27.16,SE,135,0.0,2.0,63,0.00,,,0.00,Rainwise IP-100,2013-08-31 07:16:00,
2013-08-31 01:21:00,58.0,46.0,27.16,SSE,157,2.0,4.0,64,0.00,,,0.00,Rainwise IP-100,2013-08-31 07:21:00,
2013-08-31 01:26:00,58.0,46.0,27.16,SSE,157,0.0,3.0,64,0.00,,,0.00,Rainwise IP-100,2013-08-31 07:26:00,
2013-08-31 01:31:00,57.0,45.0,27.16,SSE,157,0.0,1.0,64,0.00,,,0.00,Rainwise IP-100,2013-08-31 07:31:00,
2013-08-31 01:36:00,57.0,46.0,27.16,SSE,157,0.0,0.0,66,0.00,,,0.00,Rainwise IP-100,2013-08-31 07:36:00,
2013-08-31 01:41:00,56.0,46.0,27.17,SSE,157,1.0,0.0,68,0.00,,,0.00,Rainwise IP-100,2013-08-31 07:41:00,
2013-08-31 01:46:00,56.0,46.0,27.17,SSE,157,0.0,2.0,68,0.00,,,0.00,Rainwise IP-100,2013-08-31 07:46:00,
2013-08-31 01:51:00,56.0,46.0,27.17,SSE,157,0.0,0.0,69,0.00,,,0.00,Rainwise IP-100,2013-08-31 07:51:00,
2013-08-31 01:56:00,55.0,46.0,27.17,SSE,157,0.0,0.0,71,0.00,,,0.00,Rainwise IP-100,2013-08-31 07:56:00,
2013-08-31 02:01:00,55.0,46.0,27.17,SSE,157,0.0,0.0,71,0.00,,,0.00,Rainwise IP-100,2013-08-31 08:01:00,
2013-08-31 02:06:00,55.0,46.0,27.17,SSE,157,2.0,2.0,71,0.00,,,0.00,Rainwise IP-100,2013-08-31 08:06:00,
2013-08-31 02:11:00,55.0,46.0,27.17,SSE,157,0.0,4.0,71,0.00,,,0.00,Rainwise IP-100,2013-08-31 08:11:00,
2013-08-31 02:16:00,55.0,47.0,27.17,SSE,157,0.0,1.0,72,0.00,,,0.00,Rainwise IP-100,2013-08-31 08:16:00,
2013-08-31 02:21:00,55.0,47.0,27.18,SSE,157,0.0,1.0,73,0.00,,,0.00,Rainwise IP-100,2013-08-31 08:21:00,
2013-08-31 02:26:00,55.0,47.0,27.18,East,90,2.0,2.0,74,0.00,,,0.00,Rainwise IP-100,2013-08-31 08:26:00,
2013-08-31 02:31:00,55.0,47.0,27.18,East,90,0.0,3.0,73,0.00,,,0.00,Rainwise IP-100,2013-08-31 08:31:00,
2013-08-31 02:36:00,55.0,47.0,27.18,East,90,0.0,0.0,73,0.00,,,0.00,Rainwise IP-100,2013-08-31 08:36:00,
2013-08-31 02:41:00,55.0,46.0,27.18,East,90,0.0,3.0,71,0.00,,,0.00,Rainwise IP-100,2013-08-31 08:41:00,
2013-08-31 02:46:00,55.0,46.0,27.18,East,90,0.0,0.0,71,0.00,,,0.00,Rainwise IP-100,2013-08-31 08:46:00,
2013-08-31 02:51:00,55.0,47.0,27.18,East,90,0.0,0.0,73,0.00,,,0.00,Rainwise IP-100,2013-08-31 08:51:00,
2013-08-31 02:56:00,54.0,46.0,27.18,East,90,0.0,0.0,74,0.00,,,0.00,Rainwise IP-100,2013-08-31 08:56:00,
2013-08-31 03:01:00,54.0,46.0,27.18,ESE,112,0.0,5.0,74,0.00,,,0.00,Rainwise IP-100,2013-08-31 09:01:00,
2013-08-31 03:06:00,54.0,46.0,27.18,SE,135,0.0,0.0,73,0.00,,,0.00,Rainwise IP-100,2013-08-31 09:06:00,
2013-08-31 03:11:00,54.0,46.0,27.18,ESE,112,0.0,0.0,74,0.00,,,0.00,Rainwise IP-100,2013-08-31 09:11:00,
2013-08-31 03:16:00,54.0,47.0,27.18,ESE,112,0.0,2.0,75,0.00,,,0.00,Rainwise IP-100,2013-08-31 09:16:00,
2013-08-31 03:21:00,54.0,47.0,27.19,ESE,112,0.0,0.0,75,0.00,,,0.00,Rainwise IP-100,2013-08-31 09:21:00,
2013-08-31 03:26:00,54.0,47.0,27.19,ESE,112,1.0,1.0,77,0.00,,,0.00,Rainwise IP-100,2013-08-31 09:26:00,
2013-08-31 03:31:00,54.0,47.0,27.18,East,90,1.0,3.0,76,0.00,,,0.00,Rainwise IP-100,2013-08-31 09:31:00,
2013-08-31 03:36:00,55.0,47.0,27.18,SE,135,1.0,3.0,73,0.00,,,0.00,Rainwise IP-100,2013-08-31 09:36:00,
2013-08-31 03:41:00,55.0,47.0,27.17,East,90,0.0,3.0,73,0.00,,,0.00,Rainwise IP-100,2013-08-31 09:41:00,
2013-08-31 03:46:00,55.0,47.0,27.17,East,90,0.0,3.0,73,0.00,,,0.00,Rainwise IP-100,2013-08-31 09:46:00,
2013-08-31 03:51:00,55.0,47.0,27.18,ENE,67,2.0,5.0,73,0.00,,,0.00,Rainwise IP-100,2013-08-31 09:51:00,
2013-08-31 03:52:00,55.0,47.0,27.18,East,90,1.0,6.0,72,0.00,,,0.00,Rainwise IP-100,2013-08-31 09:52:00,
2013-08-31 03:57:00,55.0,46.0,27.18,East,90,2.0,5.0,70,0.00,,,0.00,Rainwise IP-100,2013-08-31 09:57:00,
2013-08-31 04:02:00,55.0,46.0,27.18,East,90,1.0,6.0,70,0.00,,,0.00,Rainwise IP-100,2013-08-31 10:02:00,
2013-08-31 04:07:00,55.0,46.0,27.18,NE,45,2.0,6.0,70,0.00,,,0.00,Rainwise IP-100,2013-08-31 10:07:00,
2013-08-31 04:12:00,55.0,45.0,27.18,ENE,67,0.0,4.0,69,0.00,,,0.00,Rainwise IP-100,2013-08-31 10:12:00,
2013-08-31 04:17:00,55.0,45.0,27.18,ENE,67,1.0,2.0,69,0.00,,,0.00,Rainwise IP-100,2013-08-31 10:17:00,
2013-08-31 04:22:00,55.0,46.0,27.18,NE,45,4.0,6.0,71,0.00,,,0.00,Rainwise IP-100,2013-08-31 10:22:00,
2013-08-31 04:27:00,55.0,45.0,27.18,NNE,22,0.0,5.0,69,0.00,,,0.00,Rainwise IP-100,2013-08-31 10:27:00,
2013-08-31 04:32:00,55.0,45.0,27.18,ESE,112,0.0,3.0,69,0.00,,,0.00,Rainwise IP-100,2013-08-31 10:32:00,
2013-08-31 04:37:00,55.0,45.0,27.18,East,90,2.0,5.0,69,0.00,,,0.00,Rainwise IP-100,2013-08-31 10:37:00,
2013-08-31 04:42:00,55.0,46.0,27.18,East,90,2.0,3.0,70,0.00,,,0.00,Rainwise IP-100,2013-08-31 10:42:00,
2013-08-31 04:47:00,55.0,46.0,27.18,ENE,67,1.0,4.0,71,0.00,,,0.00,Rainwise IP-100,2013-08-31 10:47:00,
2013-08-31 04:52:00,54.0,45.0,27.18,ENE,67,0.0,3.0,71,0.00,,,0.00,Rainwise IP-100,2013-08-31 10:52:00,
2013-08-31 04:57:00,54.0,46.0,27.18,East,90,3.0,3.0,73,0.00,,,0.00,Rainwise IP-100,2013-08-31 10:57:00,
2013-08-31 05:02:00,53.0,44.0,27.18,SW,225,0.0,6.0,73,0.00,,,0.00,Rainwise IP-100,2013-08-31 11:02:00,
2013-08-31 05:07:00,53.0,44.0,27.18,SE,135,2.0,4.0,73,0.00,,,0.00,Rainwise IP-100,2013-08-31 11:07:00,
2013-08-31 05:12:00,53.0,44.0,27.19,East,90,0.0,2.0,73,0.00,,,0.00,Rainwise IP-100,2013-08-31 11:12:00,
2013-08-31 05:17:00,53.0,45.0,27.19,East,90,0.0,0.0,75,0.00,,,0.00,Rainwise IP-100,2013-08-31 11:17:00,
2013-08-31 05:22:00,52.0,45.0,27.19,East,90,0.0,0.0,77,0.00,,,0.00,Rainwise IP-100,2013-08-31 11:22:00,
2013-08-31 05:27:00,51.0,44.0,27.20,East,90,0.0,0.0,77,0.00,,,0.00,Rainwise IP-100,2013-08-31 11:27:00,
2013-08-31 05:32:00,51.0,46.0,27.20,SE,135,2.0,0.0,82,0.00,,,0.00,Rainwise IP-100,2013-08-31 11:32:00,
2013-08-31 05:37:00,51.0,46.0,27.20,SE,135,0.0,2.0,82,0.00,,,0.00,Rainwise IP-100,2013-08-31 11:37:00,
2013-08-31 05:42:00,50.0,45.0,27.20,SE,135,0.0,0.0,84,0.00,,,0.00,Rainwise IP-100,2013-08-31 11:42:00,
2013-08-31 05:47:00,50.0,46.0,27.20,SE,135,0.0,0.0,85,0.00,,,0.00,Rainwise IP-100,2013-08-31 11:47:00,
2013-08-31 05:52:00,50.0,46.0,27.20,SE,135,0.0,1.0,86,0.00,,,0.00,Rainwise IP-100,2013-08-31 11:52:00,
2013-08-31 05:57:00,50.0,46.0,27.20,SE,135,0.0,0.0,85,0.00,,,0.00,Rainwise IP-100,2013-08-31 11:57:00,
2013-08-31 06:02:00,49.0,45.0,27.20,SE,135,0.0,0.0,87,0.00,,,0.00,Rainwise IP-100,2013-08-31 12:02:00,
2013-08-31 06:07:00,49.0,45.0,27.21,SE,135,0.0,0.0,87,0.00,,,0.00,Rainwise IP-100,2013-08-31 12:07:00,
2013-08-31 06:12:00,48.0,45.0,27.21,SE,135,0.0,0.0,88,0.00,,,0.00,Rainwise IP-100,2013-08-31 12:12:00,
2013-08-31 06:17:00,49.0,46.0,27.21,SE,135,0.0,0.0,88,0.00,,,0.00,Rainwise IP-100,2013-08-31 12:17:00,
2013-08-31 06:22:00,48.0,46.0,27.21,SE,135,0.0,0.0,91,0.00,,,0.00,Rainwise IP-100,2013-08-31 12:22:00,
2013-08-31 06:27:00,49.0,47.0,27.21,SE,135,0.0,0.0,90,0.00,,,0.00,Rainwise IP-100,2013-08-31 12:27:00,
2013-08-31 06:32:00,48.0,46.0,27.21,SE,135,2.0,2.0,91,0.00,,,0.00,Rainwise IP-100,2013-08-31 12:32:00,
2013-08-31 06:37:00,49.0,47.0,27.21,SE,135,0.0,3.0,90,0.00,,,0.00,Rainwise IP-100,2013-08-31 12:37:00,
2013-08-31 06:42:00,49.0,47.0,27.21,SE,135,0.0,0.0,90,0.00,,,0.00,Rainwise IP-100,2013-08-31 12:42:00,
2013-08-31 06:47:00,49.0,46.0,27.21,SE,135,0.0,0.0,89,0.00,,,0.00,Rainwise IP-100,2013-08-31 12:47:00,
2013-08-31 06:52:00,48.0,46.0,27.21,SE,135,0.0,0.0,90,0.00,,,0.00,Rainwise IP-100,2013-08-31 12:52:00,
2013-08-31 06:57:00,48.0,46.0,27.21,SE,135,0.0,0.0,90,0.00,,,0.00,Rainwise IP-100,2013-08-31 12:57:00,
2013-08-31 07:02:00,47.0,44.0,27.21,SE,135,0.0,0.0,91,0.00,,,0.00,Rainwise IP-100,2013-08-31 13:02:00,
2013-08-31 07:07:00,48.0,46.0,27.22,SE,135,0.0,0.0,91,0.00,,,0.00,Rainwise IP-100,2013-08-31 13:07:00,
2013-08-31 07:12:00,48.0,46.0,27.22,SE,135,0.0,0.0,92,0.00,,,0.00,Rainwise IP-100,2013-08-31 13:12:00,
2013-08-31 07:17:00,48.0,46.0,27.22,SE,135,0.0,0.0,91,0.00,,,0.00,Rainwise IP-100,2013-08-31 13:17:00,
2013-08-31 07:22:00,48.0,47.0,27.22,SE,135,0.0,0.0,94,0.00,,,0.00,Rainwise IP-100,2013-08-31 13:22:00,
2013-08-31 07:27:00,48.0,46.0,27.22,SE,135,0.0,0.0,91,0.00,,,0.00,Rainwise IP-100,2013-08-31 13:27:00,
2013-08-31 07:32:00,48.0,46.0,27.22,SE,135,0.0,0.0,92,0.00,,,0.00,Rainwise IP-100,2013-08-31 13:32:00,
2013-08-31 07:37:00,48.0,47.0,27.22,SE,135,0.0,0.0,93,0.00,,,0.00,Rainwise IP-100,2013-08-31 13:37:00,
2013-08-31 07:42:00,49.0,47.0,27.22,SE,135,0.0,0.0,94,0.00,,,0.00,Rainwise IP-100,2013-08-31 13:42:00,
2013-08-31 07:47:00,50.0,47.0,27.22,SE,135,0.0,0.0,93,0.00,,,0.00,Rainwise IP-100,2013-08-31 13:47:00,
2013-08-31 07:52:00,51.0,49.0,27.22,SE,135,0.0,0.0,92,0.00,,,0.00,Rainwise IP-100,2013-08-31 13:52:00,
2013-08-31 07:57:00,53.0,49.0,27.22,SE,135,3.0,3.0,87,0.00,,,0.00,Rainwise IP-100,2013-08-31 13:57:00,
2013-08-31 08:02:00,54.0,48.0,27.22,SE,135,2.0,4.0,81,0.00,,,0.00,Rainwise IP-100,2013-08-31 14:02:00,
2013-08-31 08:07:00,55.0,49.0,27.22,SE,135,0.0,2.0,80,0.00,,,0.00,Rainwise IP-100,2013-08-31 14:07:00,
2013-08-31 08:12:00,56.0,47.0,27.22,SE,135,0.0,0.0,74,0.00,,,0.00,Rainwise IP-100,2013-08-31 14:12:00,
2013-08-31 08:17:00,57.0,47.0,27.23,WSW,247,1.0,2.0,70,0.00,,,0.00,Rainwise IP-100,2013-08-31 14:17:00,
2013-08-31 08:22:00,57.0,47.0,27.23,West,270,1.0,4.0,70,0.00,,,0.00,Rainwise IP-100,2013-08-31 14:22:00,
2013-08-31 08:27:00,58.0,48.0,27.23,West,270,0.0,3.0,69,0.00,,,0.00,Rainwise IP-100,2013-08-31 14:27:00,
2013-08-31 08:32:00,58.0,48.0,27.23,NW,315,2.0,5.0,69,0.00,,,0.00,Rainwise IP-100,2013-08-31 14:32:00,
2013-08-31 08:37:00,59.0,47.0,27.24,NNE,22,0.0,3.0,65,0.00,,,0.00,Rainwise IP-100,2013-08-31 14:37:00,
2013-08-31 08:42:00,59.0,47.0,27.24,NNW,337,1.0,5.0,65,0.00,,,0.00,Rainwise IP-100,2013-08-31 14:42:00,
2013-08-31 08:47:00,60.0,47.0,27.24,WNW,292,4.0,6.0,61,0.00,,,0.00,Rainwise IP-100,2013-08-31 14:47:00,
2013-08-31 08:52:00,61.0,47.0,27.24,North,360,4.0,6.0,62,0.00,,,0.00,Rainwise IP-100,2013-08-31 14:52:00,
2013-08-31 08:57:00,61.0,47.0,27.24,WNW,292,3.0,6.0,60,0.00,,,0.00,Rainwise IP-100,2013-08-31 14:57:00,
2013-08-31 09:02:00,61.0,47.0,27.24,ENE,67,3.0,6.0,60,0.00,,,0.00,Rainwise IP-100,2013-08-31 15:02:00,
2013-08-31 09:07:00,61.0,47.0,27.24,NE,45,2.0,6.0,60,0.00,,,0.00,Rainwise IP-100,2013-08-31 15:07:00,
2013-08-31 09:12:00,61.0,46.0,27.25,NE,45,4.0,6.0,57,0.00,,,0.00,Rainwise IP-100,2013-08-31 15:12:00,
2013-08-31 09:17:00,62.0,46.0,27.25,NW,315,2.0,5.0,56,0.00,,,0.00,Rainwise IP-100,2013-08-31 15:17:00,
2013-08-31 09:22:00,62.0,47.0,27.25,NE,45,2.0,6.0,57,0.00,,,0.00,Rainwise IP-100,2013-08-31 15:22:00,
2013-08-31 09:27:00,63.0,47.0,27.26,North,360,3.0,6.0,55,0.00,,,0.00,Rainwise IP-100,2013-08-31 15:27:00,
2013-08-31 09:32:00,63.0,47.0,27.26,NNW,337,2.0,5.0,55,0.00,,,0.00,Rainwise IP-100,2013-08-31 15:32:00,
2013-08-31 09:37:00,64.0,47.0,27.25,North,360,6.0,6.0,53,0.00,,,0.00,Rainwise IP-100,2013-08-31 15:37:00,
2013-08-31 09:42:00,64.0,47.0,27.25,NW,315,7.0,7.0,53,0.00,,,0.00,Rainwise IP-100,2013-08-31 15:42:00,
2013-08-31 09:47:00,64.0,47.0,27.25,WNW,292,3.0,7.0,53,0.00,,,0.00,Rainwise IP-100,2013-08-31 15:47:00,
2013-08-31 09:52:00,64.0,46.0,27.25,WNW,292,6.0,6.0,52,0.00,,,0.00,Rainwise IP-100,2013-08-31 15:52:00,
2013-08-31 09:57:00,65.0,47.0,27.26,North,360,5.0,6.0,51,0.00,,,0.00,Rainwise IP-100,2013-08-31 15:57:00,
2013-08-31 10:02:00,65.0,47.0,27.26,NNW,337,6.0,6.0,51,0.00,,,0.00,Rainwise IP-100,2013-08-31 16:02:00,
2013-08-31 10:07:00,66.0,46.0,27.26,NNW,337,0.0,6.0,49,0.00,,,0.00,Rainwise IP-100,2013-08-31 16:07:00,
2013-08-31 10:12:00,66.0,46.0,27.26,WNW,292,2.0,6.0,49,0.00,,,0.00,Rainwise IP-100,2013-08-31 16:12:00,
2013-08-31 10:17:00,66.0,46.0,27.27,WNW,292,3.0,6.0,49,0.00,,,0.00,Rainwise IP-100,2013-08-31 16:17:00,
2013-08-31 10:22:00,66.0,47.0,27.27,West,270,5.0,5.0,50,0.00,,,0.00,Rainwise IP-100,2013-08-31 16:22:00,
2013-08-31 10:27:00,66.0,47.0,27.27,WNW,292,0.0,6.0,50,0.00,,,0.00,Rainwise IP-100,2013-08-31 16:27:00,
2013-08-31 10:32:00,68.0,47.0,27.27,North,360,2.0,6.0,48,0.00,,,0.00,Rainwise IP-100,2013-08-31 16:32:00,
2013-08-31 10:37:00,69.0,47.0,27.26,SSE,157,3.0,5.0,46,0.00,,,0.00,Rainwise IP-100,2013-08-31 16:37:00,
2013-08-31 10:42:00,69.0,48.0,27.26,SE,135,0.0,5.0,48,0.00,,,0.00,Rainwise IP-100,2013-08-31 16:42:00,
2013-08-31 10:47:00,69.0,47.0,27.27,West,270,5.0,7.0,46,0.00,,,0.00,Rainwise IP-100,2013-08-31 16:47:00,
2013-08-31 10:52:00,68.0,48.0,27.27,West,270,7.0,7.0,49,0.00,,,0.00,Rainwise IP-100,2013-08-31 16:52:00,
2013-08-31 10:57:00,67.0,48.0,27.27,NNW,337,1.0,8.0,50,0.00,,,0.00,Rainwise IP-100,2013-08-31 16:57:00,
2013-08-31 11:02:00,68.0,47.0,27.27,West,270,1.0,6.0,48,0.00,,,0.00,Rainwise IP-100,2013-08-31 17:02:00,
2013-08-31 11:07:00,69.0,48.0,27.27,NNW,337,1.0,5.0,48,0.00,,,0.00,Rainwise IP-100,2013-08-31 17:07:00,
2013-08-31 11:12:00,71.0,49.0,27.26,NNW,337,2.0,6.0,46,0.00,,,0.00,Rainwise IP-100,2013-08-31 17:12:00,
2013-08-31 11:17:00,71.0,48.0,27.26,North,360,5.0,7.0,45,0.00,,,0.00,Rainwise IP-100,2013-08-31 17:17:00,
2013-08-31 11:22:00,71.0,48.0,27.26,SW,225,2.0,7.0,45,0.00,,,0.00,Rainwise IP-100,2013-08-31 17:22:00,
2013-08-31 11:27:00,72.0,50.0,27.26,NW,315,4.0,6.0,45,0.00,,,0.00,Rainwise IP-100,2013-08-31 17:27:00,
2013-08-31 11:32:00,72.0,48.0,27.25,North,360,0.0,7.0,43,0.00,,,0.00,Rainwise IP-100,2013-08-31 17:32:00,
2013-08-31 11:37:00,72.0,48.0,27.25,West,270,0.0,5.0,43,0.00,,,0.00,Rainwise IP-100,2013-08-31 17:37:00,
2013-08-31 11:42:00,73.0,49.0,27.25,WNW,292,0.0,4.0,43,0.00,,,0.00,Rainwise IP-100,2013-08-31 17:42:00,
2013-08-31 11:47:00,73.0,48.0,27.25,ENE,67,2.0,7.0,41,0.00,,,0.00,Rainwise IP-100,2013-08-31 17:47:00,
2013-08-31 11:52:00,73.0,48.0,27.25,ENE,67,5.0,6.0,42,0.00,,,0.00,Rainwise IP-100,2013-08-31 17:52:00,
2013-08-31 11:57:00,73.0,47.0,27.25,WNW,292,2.0,6.0,39,0.00,,,0.00,Rainwise IP-100,2013-08-31 17:57:00,
2013-08-31 12:02:00,74.0,47.0,27.25,NW,315,6.0,8.0,39,0.00,,,0.00,Rainwise IP-100,2013-08-31 18:02:00,
2013-08-31 12:07:00,73.0,47.0,27.25,North,360,1.0,6.0,39,0.00,,,0.00,Rainwise IP-100,2013-08-31 18:07:00,
2013-08-31 12:12:00,74.0,48.0,27.25,SSE,157,0.0,6.0,40,0.00,,,0.00,Rainwise IP-100,2013-08-31 18:12:00,
2013-08-31 12:17:00,74.0,47.0,27.25,North,360,4.0,7.0,39,0.00,,,0.00,Rainwise IP-100,2013-08-31 18:17:00,
2013-08-31 12:22:00,75.0,47.0,27.24,NW,315,3.0,7.0,38,0.00,,,0.00,Rainwise IP-100,2013-08-31 18:22:00,
2013-08-31 12:27:00,75.0,48.0,27.24,West,270,4.0,6.0,39,0.00,,,0.00,Rainwise IP-100,2013-08-31 18:27:00,
2013-08-31 12:32:00,75.0,47.0,27.23,NE,45,1.0,7.0,38,0.00,,,0.00,Rainwise IP-100,2013-08-31 18:32:00,
2013-08-31 12:37:00,75.0,47.0,27.23,SSW,202,1.0,5.0,38,0.00,,,0.00,Rainwise IP-100,2013-08-31 18:37:00,
2013-08-31 12:42:00,76.0,48.0,27.23,SE,135,2.0,5.0,38,0.00,,,0.00,Rainwise IP-100,2013-08-31 18:42:00,
2013-08-31 12:47:00,78.0,50.0,27.23,NW,315,4.0,7.0,37,0.00,,,0.00,Rainwise IP-100,2013-08-31 18:47:00,
2013-08-31 12:52:00,77.0,47.0,27.23,SW,225,3.0,7.0,35,0.00,,,0.00,Rainwise IP-100,2013-08-31 18:52:00,
2013-08-31 12:57:00,77.0,47.0,27.23,WNW,292,6.0,7.0,35,0.00,,,0.00,Rainwise IP-100,2013-08-31 18:57:00,
2013-08-31 13:02:00,77.0,47.0,27.23,South,180,5.0,7.0,34,0.00,,,0.00,Rainwise IP-100,2013-08-31 19:02:00,
2013-08-31 13:07:00,77.0,47.0,27.23,West,270,1.0,6.0,34,0.00,,,0.00,Rainwise IP-100,2013-08-31 19:07:00,
2013-08-31 13:12:00,78.0,47.0,27.22,SSE,157,1.0,6.0,34,0.00,,,0.00,Rainwise IP-100,2013-08-31 19:12:00,
2013-08-31 13:17:00,79.0,47.0,27.22,SE,135,3.0,6.0,33,0.00,,,0.00,Rainwise IP-100,2013-08-31 19:17:00,
2013-08-31 13:22:00,79.0,47.0,27.21,NW,315,6.0,7.0,32,0.00,,,0.00,Rainwise IP-100,2013-08-31 19:22:00,
2013-08-31 13:27:00,79.0,46.0,27.21,West,270,5.0,7.0,31,0.00,,,0.00,Rainwise IP-100,2013-08-31 19:27:00,
2013-08-31 13:32:00,79.0,47.0,27.22,NW,315,5.0,7.0,32,0.00,,,0.00,Rainwise IP-100,2013-08-31 19:32:00,
2013-08-31 13:37:00,79.0,45.0,27.22,SE,135,2.0,10.0,30,0.00,,,0.00,Rainwise IP-100,2013-08-31 19:37:00,
2013-08-31 13:42:00,80.0,47.0,27.21,North,360,7.0,9.0,31,0.00,,,0.00,Rainwise IP-100,2013-08-31 19:42:00,
2013-08-31 13:47:00,79.0,44.0,27.21,NW,315,4.0,9.0,29,0.00,,,0.00,Rainwise IP-100,2013-08-31 19:47:00,
2013-08-31 13:52:00,79.0,45.0,27.20,NNE,22,6.0,8.0,30,0.00,,,0.00,Rainwise IP-100,2013-08-31 19:52:00,
2013-08-31 13:57:00,80.0,45.0,27.20,WNW,292,4.0,7.0,29,0.00,,,0.00,Rainwise IP-100,2013-08-31 19:57:00,
2013-08-31 14:02:00,80.0,45.0,27.20,WSW,247,5.0,8.0,29,0.00,,,0.00,Rainwise IP-100,2013-08-31 20:02:00,
2013-08-31 14:07:00,80.0,45.0,27.20,NW,315,5.0,8.0,29,0.00,,,0.00,Rainwise IP-100,2013-08-31 20:07:00,
2013-08-31 14:12:00,81.0,45.0,27.19,SSE,157,1.0,6.0,28,0.00,,,0.00,Rainwise IP-100,2013-08-31 20:12:00,
2013-08-31 14:17:00,82.0,45.0,27.19,SSE,157,1.0,6.0,27,0.00,,,0.00,Rainwise IP-100,2013-08-31 20:17:00,
2013-08-31 14:22:00,81.0,44.0,27.21,West,270,5.0,7.0,27,0.00,,,0.00,Rainwise IP-100,2013-08-31 20:22:00,
2013-08-31 14:27:00,82.0,47.0,27.21,South,180,3.0,6.0,29,0.00,,,0.00,Rainwise IP-100,2013-08-31 20:27:00,
2013-08-31 14:32:00,82.0,46.0,27.21,SE,135,1.0,8.0,28,0.00,,,0.00,Rainwise IP-100,2013-08-31 20:32:00,
2013-08-31 14:37:00,82.0,45.0,27.21,NW,315,1.0,9.0,27,0.00,,,0.00,Rainwise IP-100,2013-08-31 20:37:00,
2013-08-31 14:42:00,83.0,46.0,27.21,East,90,3.0,6.0,27,0.00,,,0.00,Rainwise IP-100,2013-08-31 20:42:00,
2013-08-31 14:47:00,83.0,46.0,27.21,ENE,67,1.0,6.0,27,0.00,,,0.00,Rainwise IP-100,2013-08-31 20:47:00,
2013-08-31 14:52:00,83.0,46.0,27.21,NE,45,1.0,7.0,27,0.00,,,0.00,Rainwise IP-100,2013-08-31 20:52:00,
2013-08-31 14:57:00,84.0,45.0,27.21,SE,135,1.0,7.0,25,0.00,,,0.00,Rainwise IP-100,2013-08-31 20:57:00,
2013-08-31 15:02:00,84.0,46.0,27.22,SSE,157,2.0,5.0,26,0.00,,,0.00,Rainwise IP-100,2013-08-31 21:02:00,
2013-08-31 15:07:00,84.0,43.0,27.22,West,270,7.0,7.0,24,0.00,,,0.00,Rainwise IP-100,2013-08-31 21:07:00,
2013-08-31 15:12:00,84.0,47.0,27.23,SSE,157,5.0,9.0,27,0.00,,,0.00,Rainwise IP-100,2013-08-31 21:12:00,
2013-08-31 15:17:00,84.0,43.0,27.23,WNW,292,3.0,6.0,24,0.00,,,0.00,Rainwise IP-100,2013-08-31 21:17:00,
2013-08-31 15:22:00,85.0,45.0,27.22,West,270,3.0,6.0,25,0.00,,,0.00,Rainwise IP-100,2013-08-31 21:22:00,
2013-08-31 15:27:00,84.0,46.0,27.22,NNW,337,5.0,9.0,26,0.00,,,0.00,Rainwise IP-100,2013-08-31 21:27:00,
2013-08-31 15:32:00,84.0,43.0,27.21,NNW,337,6.0,8.0,24,0.00,,,0.00,Rainwise IP-100,2013-08-31 21:32:00,
2013-08-31 15:37:00,85.0,44.0,27.21,NE,45,4.0,7.0,24,0.00,,,0.00,Rainwise IP-100,2013-08-31 21:37:00,
2013-08-31 15:42:00,85.0,44.0,27.21,SE,135,2.0,6.0,24,0.00,,,0.00,Rainwise IP-100,2013-08-31 21:42:00,
2013-08-31 15:47:00,85.0,43.0,27.21,NNW,337,7.0,8.0,23,0.00,,,0.00,Rainwise IP-100,2013-08-31 21:47:00,
2013-08-31 15:52:00,85.0,44.0,27.20,WNW,292,2.0,9.0,24,0.00,,,0.00,Rainwise IP-100,2013-08-31 21:52:00,
2013-08-31 15:57:00,85.0,44.0,27.20,North,360,4.0,7.0,24,0.00,,,0.00,Rainwise IP-100,2013-08-31 21:57:00,
2013-08-31 16:02:00,86.0,44.0,27.20,NW,315,2.0,9.0,23,0.00,,,0.00,Rainwise IP-100,2013-08-31 22:02:00,
2013-08-31 16:07:00,85.0,44.0,27.20,NNW,337,6.0,8.0,24,0.00,,,0.00,Rainwise IP-100,2013-08-31 22:07:00,
2013-08-31 16:12:00,86.0,44.0,27.20,WNW,292,2.0,8.0,23,0.00,,,0.00,Rainwise IP-100,2013-08-31 22:12:00,
2013-08-31 16:17:00,87.0,43.0,27.20,SW,225,2.0,7.0,22,0.00,,,0.00,Rainwise IP-100,2013-08-31 22:17:00,
2013-08-31 16:22:00,87.0,45.0,27.21,NE,45,6.0,9.0,23,0.00,,,0.00,Rainwise IP-100,2013-08-31 22:22:00,
2013-08-31 16:27:00,85.0,43.0,27.21,West,270,7.0,8.0,23,0.00,,,0.00,Rainwise IP-100,2013-08-31 22:27:00,
2013-08-31 16:32:00,86.0,44.0,27.21,SE,135,1.0,7.0,23,0.00,,,0.00,Rainwise IP-100,2013-08-31 22:32:00,
2013-08-31 16:37:00,86.0,43.0,27.21,NW,315,0.0,6.0,22,0.00,,,0.00,Rainwise IP-100,2013-08-31 22:37:00,
2013-08-31 16:42:00,86.0,44.0,27.20,West,270,4.0,9.0,23,0.00,,,0.00,Rainwise IP-100,2013-08-31 22:42:00,
2013-08-31 16:47:00,86.0,44.0,27.20,North,360,6.0,9.0,23,0.00,,,0.00,Rainwise IP-100,2013-08-31 22:47:00,
2013-08-31 16:52:00,87.0,43.0,27.19,NNW,337,4.0,7.0,22,0.00,,,0.00,Rainwise IP-100,2013-08-31 22:52:00,
2013-08-31 16:57:00,86.0,44.0,27.19,NW,315,3.0,9.0,23,0.00,,,0.00,Rainwise IP-100,2013-08-31 22:57:00,
2013-08-31 17:02:00,85.0,43.0,27.19,West,270,3.0,10.0,23,0.00,,,0.00,Rainwise IP-100,2013-08-31 23:02:00,
2013-08-31 17:07:00,85.0,43.0,27.19,NNW,337,6.0,10.0,23,0.00,,,0.00,Rainwise IP-100,2013-08-31 23:07:00,
2013-08-31 17:12:00,86.0,43.0,27.18,West,270,6.0,7.0,22,0.00,,,0.00,Rainwise IP-100,2013-08-31 23:12:00,
2013-08-31 17:17:00,86.0,45.0,27.18,West,270,7.0,10.0,24,0.00,,,0.00,Rainwise IP-100,2013-08-31 23:17:00,
2013-08-31 17:22:00,86.0,44.0,27.19,West,270,6.0,7.0,23,0.00,,,0.00,Rainwise IP-100,2013-08-31 23:22:00,
2013-08-31 17:27:00,86.0,43.0,27.19,WNW,292,5.0,8.0,22,0.00,,,0.00,Rainwise IP-100,2013-08-31 23:27:00,
2013-08-31 17:32:00,87.0,43.0,27.18,NNW,337,5.0,8.0,22,0.00,,,0.00,Rainwise IP-100,2013-08-31 23:32:00,
2013-08-31 17:37:00,87.0,42.0,27.18,NW,315,5.0,6.0,21,0.00,,,0.00,Rainwise IP-100,2013-08-31 23:37:00,
2013-08-31 17:42:00,86.0,43.0,27.19,NW,315,4.0,7.0,22,0.00,,,0.00,Rainwise IP-100,2013-08-31 23:42:00,
2013-08-31 17:47:00,86.0,41.0,27.19,WNW,292,6.0,8.0,21,0.00,,,0.00,Rainwise IP-100,2013-08-31 23:47:00,
2013-08-31 17:52:00,86.0,43.0,27.17,NW,315,3.0,7.0,22,0.00,,,0.00,Rainwise IP-100,2013-08-31 23:52:00,
2013-08-31 17:57:00,86.0,43.0,27.17,North,360,1.0,5.0,22,0.00,,,0.00,Rainwise IP-100,2013-08-31 23:57:00,
2013-08-31 18:02:00,86.0,43.0,27.17,NW,315,5.0,6.0,22,0.00,,,0.00,Rainwise IP-100,2013-09-01 00:02:00,
2013-08-31 18:07:00,87.0,42.0,27.17,NW,315,0.0,6.0,21,0.00,,,0.00,Rainwise IP-100,2013-09-01 00:07:00,
2013-08-31 18:12:00,87.0,42.0,27.16,WNW,292,0.0,5.0,21,0.00,,,0.00,Rainwise IP-100,2013-09-01 00:12:00,
2013-08-31 18:17:00,86.0,43.0,27.16,NW,315,5.0,8.0,22,0.00,,,0.00,Rainwise IP-100,2013-09-01 00:17:00,
2013-08-31 18:22:00,86.0,43.0,27.16,West,270,6.0,6.0,22,0.00,,,0.00,Rainwise IP-100,2013-09-01 00:22:00,
2013-08-31 18:27:00,86.0,43.0,27.16,NNW,337,2.0,6.0,22,0.00,,,0.00,Rainwise IP-100,2013-09-01 00:27:00,
2013-08-31 18:32:00,86.0,44.0,27.15,WNW,292,4.0,5.0,23,0.00,,,0.00,Rainwise IP-100,2013-09-01 00:32:00,
2013-08-31 18:37:00,86.0,44.0,27.15,WNW,292,2.0,8.0,23,0.00,,,0.00,Rainwise IP-100,2013-09-01 00:37:00,
2013-08-31 18:42:00,86.0,43.0,27.13,NNW,337,2.0,6.0,22,0.00,,,0.00,Rainwise IP-100,2013-09-01 00:42:00,
2013-08-31 18:47:00,86.0,44.0,27.13,NW,315,4.0,6.0,23,0.00,,,0.00,Rainwise IP-100,2013-09-01 00:47:00,
2013-08-31 18:52:00,85.0,43.0,27.13,NNW,337,4.0,6.0,23,0.00,,,0.00,Rainwise IP-100,2013-09-01 00:52:00,
2013-08-31 18:57:00,85.0,44.0,27.13,NW,315,4.0,6.0,24,0.00,,,0.00,Rainwise IP-100,2013-09-01 00:57:00,
2013-08-31 19:02:00,84.0,42.0,27.11,NW,315,6.0,6.0,23,0.00,,,0.00,Rainwise IP-100,2013-09-01 01:02:00,
2013-08-31 19:07:00,84.0,43.0,27.11,NNW,337,2.0,7.0,24,0.00,,,0.00,Rainwise IP-100,2013-09-01 01:07:00,
2013-08-31 19:12:00,85.0,44.0,27.11,West,270,3.0,6.0,24,0.00,,,0.00,Rainwise IP-100,2013-09-01 01:12:00,
2013-08-31 19:17:00,84.0,43.0,27.11,WNW,292,3.0,5.0,24,0.00,,,0.00,Rainwise IP-100,2013-09-01 01:17:00,
2013-08-31 19:22:00,84.0,43.0,27.09,NW,315,0.0,4.0,24,0.00,,,0.00,Rainwise IP-100,2013-09-01 01:22:00,
2013-08-31 19:27:00,84.0,45.0,27.09,NW,315,0.0,3.0,25,0.00,,,0.00,Rainwise IP-100,2013-09-01 01:27:00,
2013-08-31 19:32:00,84.0,47.0,27.09,NW,315,0.0,0.0,27,0.00,,,0.00,Rainwise IP-100,2013-09-01 01:32:00,
2013-08-31 19:37:00,84.0,47.0,27.09,NW,315,0.0,0.0,27,0.00,,,0.00,Rainwise IP-100,2013-09-01 01:37:00,
2013-08-31 19:42:00,84.0,48.0,27.09,NW,315,0.0,0.0,29,0.00,,,0.00,Rainwise IP-100,2013-09-01 01:42:00,
2013-08-31 19:47:00,83.0,48.0,27.09,NW,315,0.0,0.0,30,0.00,,,0.00,Rainwise IP-100,2013-09-01 01:47:00,
2013-08-31 19:52:00,82.0,48.0,27.08,NW,315,0.0,0.0,31,0.00,,,0.00,Rainwise IP-100,2013-09-01 01:52:00,
2013-08-31 19:57:00,81.0,49.0,27.08,NW,315,0.0,0.0,33,0.00,,,0.00,Rainwise IP-100,2013-09-01 01:57:00,
2013-08-31 20:02:00,79.0,47.0,27.07,NW,315,0.0,0.0,32,0.00,,,0.00,Rainwise IP-100,2013-09-01 02:02:00,
2013-08-31 20:07:00,78.0,47.0,27.07,NW,315,0.0,0.0,34,0.00,,,0.00,Rainwise IP-100,2013-09-01 02:07:00,
2013-08-31 20:12:00,77.0,49.0,27.07,NW,315,0.0,0.0,37,0.00,,,0.00,Rainwise IP-100,2013-09-01 02:12:00,
2013-08-31 20:17:00,76.0,47.0,27.07,WNW,292,0.0,4.0,37,0.00,,,0.00,Rainwise IP-100,2013-09-01 02:17:00,
2013-08-31 20:22:00,76.0,49.0,27.07,WNW,292,0.0,0.0,39,0.00,,,0.00,Rainwise IP-100,2013-09-01 02:22:00,
2013-08-31 20:27:00,75.0,49.0,27.07,WNW,292,0.0,0.0,40,0.00,,,0.00,Rainwise IP-100,2013-09-01 02:27:00,
2013-08-31 20:32:00,74.0,49.0,27.05,West,270,3.0,5.0,41,0.00,,,0.00,Rainwise IP-100,2013-09-01 02:32:00,
2013-08-31 20:37:00,73.0,48.0,27.05,WNW,292,1.0,5.0,41,0.00,,,0.00,Rainwise IP-100,2013-09-01 02:37:00,
2013-08-31 20:42:00,73.0,48.0,27.06,WSW,247,0.0,1.0,41,0.00,,,0.00,Rainwise IP-100,2013-09-01 02:42:00,
2013-08-31 20:47:00,72.0,48.0,27.06,East,90,0.0,3.0,43,0.00,,,0.00,Rainwise IP-100,2013-09-01 02:47:00,
2013-08-31 20:52:00,72.0,47.0,27.06,WSW,247,2.0,3.0,41,0.00,,,0.00,Rainwise IP-100,2013-09-01 02:52:00,
2013-08-31 20:57:00,71.0,48.0,27.06,East,90,2.0,4.0,45,0.00,,,0.00,Rainwise IP-100,2013-09-01 02:57:00,
2013-08-31 21:02:00,71.0,47.0,27.07,East,90,0.0,3.0,43,0.00,,,0.00,Rainwise IP-100,2013-09-01 03:02:00,
2013-08-31 21:07:00,70.0,47.0,27.07,East,90,0.0,0.0,45,0.00,,,0.00,Rainwise IP-100,2013-09-01 03:07:00,
2013-08-31 21:12:00,69.0,47.0,27.07,East,90,0.0,0.0,47,0.00,,,0.00,Rainwise IP-100,2013-09-01 03:12:00,
2013-08-31 21:17:00,69.0,47.0,27.07,East,90,1.0,1.0,46,0.00,,,0.00,Rainwise IP-100,2013-09-01 03:17:00,
2013-08-31 21:22:00,69.0,47.0,27.06,East,90,2.0,2.0,47,0.00,,,0.00,Rainwise IP-100,2013-09-01 03:22:00,
2013-08-31 21:27:00,69.0,48.0,27.06,ESE,112,0.0,3.0,48,0.00,,,0.00,Rainwise IP-100,2013-09-01 03:27:00,
2013-08-31 21:32:00,68.0,48.0,27.05,ESE,112,0.0,0.0,49,0.00,,,0.00,Rainwise IP-100,2013-09-01 03:32:00,
2013-08-31 21:37:00,68.0,49.0,27.05,ESE,112,0.0,0.0,50,0.00,,,0.00,Rainwise IP-100,2013-09-01 03:37:00,
2013-08-31 21:42:00,67.0,48.0,27.06,ESE,112,0.0,0.0,50,0.00,,,0.00,Rainwise IP-100,2013-09-01 03:42:00,
2013-08-31 21:47:00,67.0,48.0,27.06,ESE,112,0.0,0.0,50,0.00,,,0.00,Rainwise IP-100,2013-09-01 03:47:00,
2013-08-31 21:52:00,67.0,48.0,27.07,ESE,112,0.0,0.0,51,0.00,,,0.00,Rainwise IP-100,2013-09-01 03:52:00,
2013-08-31 21:57:00,66.0,47.0,27.07,ESE,112,0.0,0.0,50,0.00,,,0.00,Rainwise IP-100,2013-09-01 03:57:00,
2013-08-31 22:01:00,67.0,47.0,27.06,ESE,112,2.0,3.0,49,0.00,,,0.00,Rainwise IP-100,2013-09-01 04:01:00,
2013-08-31 22:06:00,67.0,46.0,27.06,ESE,112,1.0,4.0,47,0.00,,,0.00,Rainwise IP-100,2013-09-01 04:06:00,
2013-08-31 22:11:00,67.0,46.0,27.06,ENE,67,1.0,5.0,46,0.00,,,0.00,Rainwise IP-100,2013-09-01 04:11:00,
2013-08-31 22:16:00,67.0,46.0,27.06,ENE,67,1.0,5.0,46,0.00,,,0.00,Rainwise IP-100,2013-09-01 04:16:00,
2013-08-31 22:21:00,67.0,45.0,27.06,ESE,112,0.0,4.0,45,0.00,,,0.00,Rainwise IP-100,2013-09-01 04:21:00,
2013-08-31 22:26:00,67.0,46.0,27.06,SE,135,0.0,4.0,46,0.00,,,0.00,Rainwise IP-100,2013-09-01 04:26:00,
2013-08-31 22:31:00,66.0,45.0,27.06,ESE,112,1.0,2.0,47,0.00,,,0.00,Rainwise IP-100,2013-09-01 04:31:00,
2013-08-31 22:36:00,66.0,45.0,27.06,ESE,112,2.0,2.0,47,0.00,,,0.00,Rainwise IP-100,2013-09-01 04:36:00,
2013-08-31 22:41:00,66.0,47.0,27.06,East,90,1.0,2.0,50,0.00,,,0.00,Rainwise IP-100,2013-09-01 04:41:00,
2013-08-31 22:46:00,66.0,46.0,27.06,East,90,0.0,3.0,49,0.00,,,0.00,Rainwise IP-100,2013-09-01 04:46:00,
2013-08-31 22:51:00,65.0,47.0,27.06,East,90,0.0,1.0,51,0.00,,,0.00,Rainwise IP-100,2013-09-01 04:51:00,
2013-08-31 22:56:00,64.0,46.0,27.06,East,90,0.0,0.0,52,0.00,,,0.00,Rainwise IP-100,2013-09-01 04:56:00,
2013-08-31 23:01:00,64.0,47.0,27.07,East,90,0.0,0.0,53,0.00,,,0.00,Rainwise IP-100,2013-09-01 05:01:00,
2013-08-31 23:06:00,64.0,47.0,27.07,SW,225,0.0,2.0,54,0.00,,,0.00,Rainwise IP-100,2013-09-01 05:06:00,
2013-08-31 23:11:00,63.0,46.0,27.06,SW,225,0.0,2.0,54,0.00,,,0.00,Rainwise IP-100,2013-09-01 05:11:00,
2013-08-31 23:16:00,63.0,46.0,27.06,SW,225,0.0,0.0,54,0.00,,,0.00,Rainwise IP-100,2013-09-01 05:16:00,
2013-08-31 23:21:00,63.0,46.0,27.06,ESE,112,1.0,0.0,54,0.00,,,0.00,Rainwise IP-100,2013-09-01 05:21:00,
2013-08-31 23:26:00,64.0,47.0,27.06,ESE,112,1.0,4.0,53,0.00,,,0.00,Rainwise IP-100,2013-09-01 05:26:00,
2013-08-31 23:31:00,64.0,47.0,27.06,ESE,112,0.0,2.0,53,0.00,,,0.00,Rainwise IP-100,2013-09-01 05:31:00,
2013-08-31 23:36:00,64.0,47.0,27.06,ESE,112,1.0,2.0,53,0.00,,,0.00,Rainwise IP-100,2013-09-01 05:36:00,
2013-08-31 23:41:00,64.0,47.0,27.06,ESE,112,2.0,3.0,53,0.00,,,0.00,Rainwise IP-100,2013-09-01 05:41:00,
2013-08-31 23:46:00,63.0,46.0,27.06,ESE,112,0.0,2.0,53,0.00,,,0.00,Rainwise IP-100,2013-09-01 05:46:00,
2013-08-31 23:51:00,63.0,46.0,27.07,SSE,157,0.0,4.0,54,0.00,,,0.00,Rainwise IP-100,2013-09-01 05:51:00,
2013-08-31 23:56:00,62.0,46.0,27.07,SSE,157,0.0,0.0,56,0.00,,,0.00,Rainwise IP-100,2013-09-01 05:56:00,